Track COSMOS 2432 (GLONASS) now! COSMOS 2432 (GLONASS) is classified as:
1 32276U 07052B 23158.42174979 -.00000045 00000-0 00000-0 0 9996 2 32276 66.0565 352.9930 0009095 341.5718 26.5204 2.13103244121523